AAL715 KLAS-KLAX

Flight info

Callsign AAL715
Flight time N/A
Altitude 28000
Route RADYR2 BLAQQ SHTNR ANJLL4
Aircraft A320/M-SDE3FGHIRWY/LB1

Departure

Time 2026-05-04 05:02
Airport Harry Reid International Airport (KLAS)

Arrival

Time N/A
Airport Los Angeles International Airport (KLAX)
Time Latitude Longitude Altitude Speed Heading
2026-05-04 04:43 36.08023 -115.14731 2117 ft 0 kts 57°
2026-05-04 04:51 36.08017 -115.14744 2116 ft 4 kts 63°
2026-05-04 04:52 36.08009 -115.14774 2115 ft 4 kts 97°
2026-05-04 04:52 36.08019 -115.14797 2115 ft 2 kts 155°
2026-05-04 04:52 36.08020 -115.14798 2115 ft 1 kts 155°
2026-05-04 04:57 36.08016 -115.14796 2116 ft 3 kts 155°
2026-05-04 04:57 36.07989 -115.14780 2116 ft 6 kts 155°
2026-05-04 04:57 36.07949 -115.14758 2117 ft 7 kts 155°
2026-05-04 04:57 36.07903 -115.14732 2117 ft 8 kts 155°
2026-05-04 04:58 36.07851 -115.14686 2115 ft 11 kts 105°
2026-05-04 04:58 36.07843 -115.14569 2111 ft 16 kts 94°
2026-05-04 04:58 36.07834 -115.14417 2109 ft 20 kts 95°
2026-05-04 04:58 36.07827 -115.14231 2102 ft 25 kts 90°
2026-05-04 04:59 36.07827 -115.14003 2099 ft 27 kts 90°
2026-05-04 04:59 36.07826 -115.13758 2095 ft 30 kts 91°
2026-05-04 04:59 36.07827 -115.13482 2089 ft 33 kts 90°
2026-05-04 04:59 36.07827 -115.13172 2075 ft 39 kts 90°
2026-05-04 05:00 36.07827 -115.12826 2065 ft 42 kts 89°
2026-05-04 05:00 36.07827 -115.12471 2074 ft 39 kts 90°
2026-05-04 05:00 36.07652 -115.12253 2110 ft 19 kts 232°
2026-05-04 05:01 36.07653 -115.12434 2062 ft 28 kts 271°
2026-05-04 05:01 36.07656 -115.12745 2059 ft 55 kts 272°
2026-05-04 05:01 36.07639 -115.13572 2086 ft 133 kts 270°
2026-05-04 05:01 36.07637 -115.14959 2268 ft 176 kts 269°
2026-05-04 05:02 36.07637 -115.16505 3108 ft 183 kts 269°
2026-05-04 05:02 36.07633 -115.18197 3251 ft 218 kts 269°
2026-05-04 05:02 36.07627 -115.20193 3257 ft 240 kts 268°
2026-05-04 05:02 36.07448 -115.22257 3259 ft 243 kts 261°
2026-05-04 05:03 36.07142 -115.24313 3258 ft 243 kts 252°
2026-05-04 05:03 36.06227 -115.26024 3260 ft 246 kts 217°
2026-05-04 05:04 36.01165 -115.28562 4138 ft 268 kts 200°
2026-05-04 05:04 35.99402 -115.29330 5137 ft 266 kts 196°
2026-05-04 05:04 35.97664 -115.29769 6524 ft 244 kts 191°
2026-05-04 05:06 35.84956 -115.32901 10427 ft 314 kts 191°
2026-05-04 05:06 35.82739 -115.33444 10559 ft 335 kts 191°
2026-05-04 05:06 35.80387 -115.34026 10687 ft 354 kts 192°
2026-05-04 05:07 35.77914 -115.34636 10826 ft 370 kts 191°
2026-05-04 05:07 35.75357 -115.35264 11196 ft 377 kts 191°
2026-05-04 05:07 35.72759 -115.35897 11671 ft 381 kts 191°
2026-05-04 05:09 35.51117 -115.38077 15025 ft 405 kts 177°
2026-05-04 05:09 35.48296 -115.37873 15395 ft 407 kts 177°
2026-05-04 05:10 35.45456 -115.37994 15752 ft 410 kts 188°
2026-05-04 05:10 35.42674 -115.38784 16108 ft 412 kts 199°
2026-05-04 05:10 35.40048 -115.40202 16458 ft 414 kts 208°
2026-05-04 05:10 35.37488 -115.41847 16800 ft 417 kts 208°
2026-05-04 05:11 35.34911 -115.43497 17135 ft 419 kts 207°
2026-05-04 05:11 35.32318 -115.45152 17465 ft 421 kts 207°
2026-05-04 05:11 35.29742 -115.46791 17785 ft 424 kts 207°
2026-05-04 05:11 35.27115 -115.48464 18095 ft 426 kts 207°
2026-05-04 05:12 35.24477 -115.50145 18388 ft 428 kts 207°
2026-05-04 05:12 35.21826 -115.51834 18667 ft 430 kts 207°
2026-05-04 05:12 35.19159 -115.53524 18932 ft 432 kts 207°
2026-05-04 05:12 35.16484 -115.55219 19185 ft 434 kts 207°
2026-05-04 05:13 35.13813 -115.56989 19421 ft 436 kts 212°
2026-05-04 05:13 35.11390 -115.59227 19646 ft 438 kts 222°
2026-05-04 05:13 35.09250 -115.61890 19860 ft 439 kts 226°
2026-05-04 05:13 35.07147 -115.64599 20064 ft 441 kts 226°
2026-05-04 05:14 35.05055 -115.67283 20259 ft 442 kts 226°
2026-05-04 05:14 35.02923 -115.70009 20443 ft 444 kts 226°
2026-05-04 05:14 35.00781 -115.72735 20617 ft 445 kts 226°
2026-05-04 05:14 34.98633 -115.75462 20780 ft 447 kts 226°
2026-05-04 05:15 34.96479 -115.78195 20935 ft 448 kts 226°
2026-05-04 05:15 34.94322 -115.80938 21076 ft 449 kts 226°
2026-05-04 05:15 34.92160 -115.83692 21208 ft 450 kts 226°
2026-05-04 05:15 34.89993 -115.86454 21336 ft 451 kts 226°
2026-05-04 05:16 34.87823 -115.89217 21461 ft 452 kts 226°
2026-05-04 05:16 34.85646 -115.91986 21586 ft 453 kts 226°
2026-05-04 05:16 34.83464 -115.94755 21711 ft 453 kts 226°
2026-05-04 05:16 34.81280 -115.97521 21836 ft 453 kts 226°
2026-05-04 05:17 34.79091 -116.00289 21961 ft 454 kts 226°
2026-05-04 05:17 34.76923 -116.03025 22085 ft 454 kts 226°
2026-05-04 05:17 34.74737 -116.05798 22209 ft 454 kts 226°
2026-05-04 05:17 34.72555 -116.08580 22334 ft 454 kts 226°
2026-05-04 05:18 34.70374 -116.11361 22458 ft 454 kts 226°
2026-05-04 05:18 34.68197 -116.14137 22583 ft 454 kts 226°
2026-05-04 05:18 34.66020 -116.16912 22707 ft 454 kts 226°
2026-05-04 05:18 34.63839 -116.19686 22832 ft 454 kts 226°
2026-05-04 05:19 34.61679 -116.22427 22955 ft 454 kts 226°
2026-05-04 05:19 34.59498 -116.25194 23080 ft 454 kts 226°
2026-05-04 05:19 34.57313 -116.27966 23205 ft 454 kts 226°
2026-05-04 05:19 34.55130 -116.30732 23330 ft 454 kts 226°
2026-05-04 05:20 34.52945 -116.33493 23455 ft 454 kts 226°